Vicksburg, LA

12:55 AM CST on January 21, 2018 (GMT -0600)
Vicksburg Tallulah Regional

Weather History for KTVR - January, 2012

Change the Weather History Date:

Sunday, January 8, 2012

  Actual Average Record
Temperature  
Mean Temperature 63 °F 45 °F  
Max Temperature 69 °F 55 °F 77 °F (2008)
Min Temperature 56 °F 35 °F 15 °F (2014)
Degree Days  
Heating Degree Days 2 20  
Month to date heating degree days 120 159  
Since 1 July heating degree days 1079 1096  
Cooling Degree Days 0 0  
Month to date cooling degree days 0 0  
Year to date cooling degree days 0 0  
Growing Degree Days 12 (Base 50)    
Moisture  
Dew Point 60 °F    
Average Humidity 91    
Maximum Humidity 100    
Minimum Humidity 81    
Precipitation  
Precipitation 0.17 in 0.16 in 1.63 in (1983)
Month to date precipitation 0.27 1.29  
Year to date precipitation 0.27 1.29  
Sea Level Pressure  
Sea Level Pressure 30.10 in    
Wind  
Wind Speed 2 mph (SE)    
Max Wind Speed 9 mph    
Max Gust Speed 12 mph    
Visibility 5 miles    
Events Fog , Rain , Thunderstorm    
T = Trace of Precipitation, MM = Missing Value Source: NWS Daily Summary

Daily Weather History Graph

Daily Weather History Graph

Search for Another Location

Airport or City:

Trip Planner

Search our weather history database for the weather conditions in past years. The results will help you decide how hot, cold, wet, or windy it might be!

Date:

Astronomy

Jan. 08, 2012 Rise Set
Actual Time 7:06 AM CST 5:15 PM CST
Civil Twilight 6:39 AM CST 5:42 PM CST
Nautical Twilight 6:09 AM CST 6:12 PM CST
Astronomical Twilight 5:39 AM CST 6:42 PM CST
Moon 4:57 PM CST (1/8) 6:25 AM CST (1/8)
Length of Visible Light 11h 02m
Length of Day
10h 08m
Full, 100% of the Moon is Illuminated
Jan 8
Full
Jan 9
Full
Jan 16
Last Quarter
Jan 23
New
Jan 30
First Quarter

Hourly Weather History & Observations

Time (CST) Temp. Dew Point Humidity Pressure Visibility Wind Dir Wind Speed Gust Speed Precip Events Conditions
12:08 AM 57.2 °F 57.2 °F 100% 30.05 in 5.0 mi ESE 4.6 mph - N/A   Scattered Clouds
12:17 AM 57.2 °F 57.2 °F 100% 30.05 in 1.8 mi East 4.6 mph - N/A   Partly Cloudy
12:32 AM 55.4 °F 55.4 °F 100% 30.05 in 0.5 mi East 4.6 mph - N/A Fog Fog
12:49 AM 55.4 °F 55.4 °F 100% 30.05 in 0.5 mi ESE 3.5 mph - N/A Fog Fog
12:53 AM 57.0 °F 55.9 °F 96% 30.07 in 0.5 mi ESE 3.5 mph - N/A Fog Fog
1:03 AM 57.2 °F 57.2 °F 100% 30.05 in 1.8 mi SE 3.5 mph - N/A   Overcast
1:10 AM 57.2 °F 57.2 °F 100% 30.05 in 2.5 mi SE 3.5 mph - N/A   Overcast
1:18 AM 57.2 °F 57.2 °F 100% 30.05 in 4.0 mi SE 3.5 mph - N/A   Overcast
1:53 AM 59.0 °F 59.0 °F 100% 30.08 in 7.0 mi SE 4.6 mph - N/A   Overcast
2:53 AM 59.0 °F 57.9 °F 96% 30.08 in 8.0 mi SSE 3.5 mph - N/A   Overcast
3:09 AM 60.8 °F 59.0 °F 94% 30.06 in 9.0 mi South 3.5 mph - N/A   Overcast
4:12 AM 60.8 °F 59.0 °F 94% 30.07 in 9.0 mi South 4.6 mph - N/A   Overcast
4:53 AM 60.1 °F 59.0 °F 96% 30.10 in 9.0 mi Calm Calm - N/A   Overcast
5:42 AM 60.8 °F 59.0 °F 94% 30.09 in 8.0 mi Calm Calm - N/A   Overcast
5:53 AM 61.0 °F 59.0 °F 93% 30.11 in 8.0 mi SSW 3.5 mph - N/A   Overcast
6:43 AM 60.8 °F 59.0 °F 94% 30.10 in 4.0 mi Calm Calm - N/A   Overcast
7:10 AM 60.8 °F 59.0 °F 94% 30.10 in 1.8 mi Calm Calm - N/A   Overcast
7:23 AM 60.8 °F 60.8 °F 100% 30.10 in 0.8 mi Calm Calm - N/A   Overcast
7:41 AM 60.8 °F 59.0 °F 94% 30.11 in 0.2 mi Calm Calm - N/A Fog Fog
7:53 AM 60.1 °F 59.0 °F 96% 30.13 in 0.2 mi Calm Calm - N/A Fog Fog
8:11 AM 60.8 °F 60.8 °F 100% 30.12 in 0.2 mi Calm Calm - N/A Fog Fog
8:53 AM 61.0 °F 60.1 °F 97% 30.15 in 0.5 mi SE 3.5 mph - N/A Fog Fog
8:58 AM 60.8 °F 60.8 °F 100% 30.13 in 1.0 mi SE 3.5 mph - N/A   Mist
9:06 AM 60.8 °F 60.8 °F 100% 30.14 in 2.0 mi SE 3.5 mph - N/A   Overcast
9:21 AM 62.6 °F 60.8 °F 94% 30.15 in 3.0 mi SSE 3.5 mph - N/A   Overcast
9:53 AM 62.1 °F 61.0 °F 96% 30.17 in 5.0 mi SSE 4.6 mph - N/A   Overcast
10:53 AM 63.0 °F 62.1 °F 97% 30.17 in 9.0 mi South 3.5 mph - N/A   Overcast
11:53 AM 66.0 °F 62.1 °F 87% 30.15 in 10.0 mi Calm Calm - N/A   Overcast
12:30 PM 66.2 °F 62.6 °F 88% 30.10 in 10.0 mi East 5.8 mph - N/A   Mostly Cloudy
12:40 PM 66.2 °F 62.6 °F 88% 30.10 in 10.0 mi ESE 5.8 mph - N/A   Scattered Clouds
12:48 PM 66.2 °F 62.6 °F 88% 30.09 in 10.0 mi ESE 5.8 mph - N/A   Mostly Cloudy
12:53 PM 66.0 °F 62.1 °F 87% 30.12 in 10.0 mi ESE 4.6 mph - N/A   Mostly Cloudy
1:00 PM 66.2 °F 62.6 °F 88% 30.09 in 10.0 mi SE 5.8 mph - N/A   Mostly Cloudy
1:16 PM 68.0 °F 62.6 °F 83% 30.08 in 10.0 mi SE 5.8 mph - N/A   Overcast
1:34 PM 66.2 °F 62.6 °F 88% 30.08 in 10.0 mi SSE 8.1 mph - N/A   Mostly Cloudy
1:53 PM 68.0 °F 63.0 °F 84% 30.09 in 10.0 mi SE 8.1 mph - N/A   Overcast
2:11 PM 68.0 °F 62.6 °F 83% 30.08 in 10.0 mi SSE 4.6 mph - N/A   Overcast
2:53 PM 68.0 °F 62.1 °F 81% 30.09 in 10.0 mi South 5.8 mph - N/A   Overcast
3:53 PM 68.0 °F 63.0 °F 84% 30.09 in 10.0 mi SSE 5.8 mph - N/A   Overcast
4:48 PM 66.2 °F 62.6 °F 88% 30.08 in 10.0 mi SSE 6.9 mph - N/A   Scattered Clouds
4:53 PM 66.0 °F 62.1 °F 87% 30.10 in 10.0 mi SE 5.8 mph - N/A   Partly Cloudy
5:53 PM 63.0 °F 61.0 °F 93% 30.11 in 7.0 mi Calm Calm - N/A   Partly Cloudy
6:53 PM 62.1 °F 60.1 °F 93% 30.12 in 8.0 mi Calm Calm - N/A   Overcast
7:53 PM 60.1 °F 59.0 °F 96% 30.11 in 6.0 mi Calm Calm - N/A   Scattered Clouds
8:34 PM 57.2 °F 57.2 °F 100% 30.11 in 1.5 mi Calm Calm - N/A   Mostly Cloudy
8:53 PM 59.0 °F 59.0 °F 100% 30.13 in 0.8 mi Calm Calm - N/A   Overcast
9:03 PM 59.0 °F 57.2 °F 94% 30.11 in 2.0 mi Calm Calm - N/A   Overcast
9:10 PM 59.0 °F 57.2 °F 94% 30.10 in 7.0 mi Calm Calm - N/A   Mostly Cloudy
10:31 PM 60.8 °F 59.0 °F 94% 30.11 in 1.8 mi Calm Calm - 0.00 in   Overcast
10:53 PM 59.0 °F 57.9 °F 96% 30.14 in 1.0 mi Calm Calm - 0.00 in   Overcast
11:00 PM 59.0 °F 59.0 °F 100% 30.12 in 0.8 mi Calm Calm - N/A Thunderstorm Overcast
11:16 PM 60.8 °F 59.0 °F 94% 30.13 in 1.0 mi West 5.8 mph - 0.07 in Rain , Thunderstorm Heavy Rain
11:27 PM 62.6 °F 60.8 °F 94% 30.13 in 2.0 mi NW 5.8 mph - 0.14 in Rain , Thunderstorm Light Rain
11:35 PM 62.6 °F 60.8 °F 94% 30.13 in 5.0 mi WNW 5.8 mph - 0.14 in Rain , Thunderstorm Light Rain
11:37 PM 62.6 °F 60.8 °F 94% 30.12 in 5.0 mi NW 5.8 mph - 0.14 in Rain Light Rain
11:51 PM 62.6 °F 62.6 °F 100% 30.12 in 5.0 mi Calm Calm - 0.16 in Rain Light Rain
11:53 PM 62.1 °F 62.1 °F 100% 30.14 in 6.0 mi Calm Calm - 0.16 in Rain Light Rain